Starlink 33584

operational
NORAD ID: 62761 Int'l Des: 2025-015 Owner: SPXS Country: US Constellation: starlink
LEOCIRCULAR

About Starlink 33584

Description loading...

Live Position

Loading 3D Globe...

Upcoming Passes

Altitude History

Altitude vs Time

uPlot chart will show altitude changes over time

Two-Line Element Set

1 62761U 25015D 25259.70028802 .00040090 00000-0 13538-2 0 9990
2 62761 53.1606 50.5466 0004405 70.4286 289.7190 15.30302847 37842
Epoch: Sep 16, 2025 • Age: 25 hours

Current Status

Altitude 476.8 km
Velocity 7.63 km/s
Sub-Earth Point 47.15°N, 170.43°W
Launch Date Jan 21, 2025
Age 0.6 years
Type internet

Technical Details

Classification Payload
Mass 575.00 kg
Dry Mass 530.00 kg
Total Mass 575.00 kg
Length 0.30 m
Diameter 4.10 m
Span 29.00 m
Shape Box + pan
Manufacturer SPXS
Bus Type Starlink V2MO
Phase Status In Orbit
Owner/State SPXS/US

Large Constellations

Loading constellations...